Omaha, IA

1:11 AM CST on November 18, 2017 (GMT -0600)
Eppley Airfield

Weather History for KOMA - February, 2013

Change the Weather History Date:

Wednesday, February 27, 2013

  Actual Average Record
Temperature  
Mean Temperature 31 °F 32 °F  
Max Temperature 37 °F 43 °F 75 °F (1976)
Min Temperature 25 °F 22 °F -6 °F (1962)
Degree Days  
Heating Degree Days 34 33  
Month to date heating degree days 955 1000  
Since 1 July heating degree days 4445 4765  
Cooling Degree Days 0 0  
Month to date cooling degree days 0 0  
Year to date cooling degree days 0 0  
Moisture  
Dew Point 22 °F    
Average Humidity 68    
Maximum Humidity 81    
Minimum Humidity 54    
Precipitation  
Precipitation 0.00 in 0.04 in 1.02 in (1948)
Month to date precipitation 0.79 0.81  
Year to date precipitation 1.29 1.53  
Snow  
Snow 0.00 in 0.20 in - ()
Month to date snowfall 9.3 5.9  
Since 1 July snowfall 21.4 21.0  
Snow Depth 4.00 in    
Sea Level Pressure  
Sea Level Pressure 30.01 in    
Wind  
Wind Speed 18 mph (NNW)    
Max Wind Speed 28 mph    
Max Gust Speed 36 mph    
Visibility 8 miles    
Events      
T = Trace of Precipitation, MM = Missing Value Source: NWS Daily Summary

Daily Weather History Graph

Daily Weather History Graph

Search for Another Location

Airport or City:

Trip Planner

Search our weather history database for the weather conditions in past years. The results will help you decide how hot, cold, wet, or windy it might be!

Date:

Astronomy

Feb. 27, 2013 Rise Set
Actual Time 7:00 AM CST 6:12 PM CST
Civil Twilight 6:32 AM CST 6:40 PM CST
Nautical Twilight 6:00 AM CST 7:12 PM CST
Astronomical Twilight 5:28 AM CST 7:44 PM CST
Moon 8:37 PM CST (2/27) 7:34 AM CST (2/27)
Length of Visible Light 12h 07m
Length of Day
11h 11m
Waning Gibbous, 96% of the Moon is Illuminated
Feb 27
Waning Gibbous
Mar 4
Last Quarter
Mar 11
New
Mar 19
First Quarter
Mar 27
Full

Hourly Weather History & Observations

Time (CST) Temp. Windchill Dew Point Humidity Pressure Visibility Wind Dir Wind Speed Gust Speed Precip Events Conditions
12:52 AM 28.0 °F 16.5 °F 21.9 °F 78% 29.94 in 5.0 mi NNW 15.0 mph - N/A   Overcast
1:23 AM 28.4 °F 17.5 °F 23.0 °F 80% 29.91 in 5.0 mi NNW 13.8 mph - N/A   Overcast
1:52 AM 28.0 °F 16.1 °F 23.0 °F 81% 29.94 in 5.0 mi NW 16.1 mph - N/A   Overcast
2:52 AM 27.0 °F 15.6 °F 21.9 °F 81% 29.92 in 5.0 mi NNW 13.8 mph - N/A   Overcast
3:52 AM 27.0 °F 15.6 °F 21.9 °F 81% 29.92 in 5.0 mi NNW 13.8 mph - N/A   Overcast
4:52 AM 27.0 °F 14.3 °F 21.9 °F 81% 29.94 in 5.0 mi NNW 17.3 mph 27.6 mph N/A   Overcast
5:52 AM 26.1 °F 12.3 °F 21.0 °F 81% 29.95 in 5.0 mi NNW 19.6 mph 27.6 mph N/A   Overcast
6:52 AM 25.0 °F 11.3 °F 19.9 °F 81% 29.96 in 5.0 mi NNW 18.4 mph - N/A   Overcast
7:09 AM 24.8 °F 11.1 °F 19.4 °F 80% 29.93 in 5.0 mi NNW 18.4 mph - N/A   Overcast
7:52 AM 25.0 °F 12.2 °F 19.0 °F 78% 29.98 in 5.0 mi NNW 16.1 mph - N/A   Overcast
8:07 AM 24.8 °F 11.9 °F 19.4 °F 80% 29.94 in 5.0 mi NW 16.1 mph - N/A   Overcast
8:52 AM 26.1 °F 14.5 °F 19.0 °F 75% 29.99 in 7.0 mi NNW 13.8 mph 21.9 mph N/A   Overcast
9:52 AM 27.0 °F 14.3 °F 19.0 °F 72% 30.00 in 8.0 mi NNW 17.3 mph - N/A   Mostly Cloudy
10:52 AM 28.9 °F 17.3 °F 19.9 °F 69% 30.01 in 7.0 mi NNW 16.1 mph - N/A   Overcast
11:52 AM 30.9 °F 19.1 °F 21.0 °F 67% 30.01 in 7.0 mi NW 18.4 mph 26.5 mph N/A   Overcast
12:52 PM 32.0 °F 20.5 °F 21.0 °F 64% 30.01 in 9.0 mi NW 18.4 mph 25.3 mph N/A   Overcast
1:52 PM 35.1 °F 23.8 °F 21.9 °F 59% 30.00 in 10.0 mi NNW 20.7 mph - N/A   Overcast
2:52 PM 36.0 °F 26.0 °F 23.0 °F 59% 30.01 in 10.0 mi NNW 17.3 mph 25.3 mph N/A   Overcast
3:52 PM 37.4 °F 26.4 °F 23.0 °F 56% 29.99 in 10.0 mi NNW 23.0 mph 31.1 mph N/A   Overcast
4:52 PM 37.0 °F 26.2 °F 23.0 °F 57% 30.03 in 10.0 mi NNW 21.9 mph - N/A   Overcast
5:52 PM 34.0 °F 23.0 °F 23.0 °F 64% 30.05 in 10.0 mi NW 18.4 mph 29.9 mph N/A   Overcast
6:52 PM 33.1 °F 22.2 °F 23.0 °F 66% 30.08 in 10.0 mi NNW 17.3 mph - N/A   Overcast
7:52 PM 32.0 °F 20.1 °F 25.0 °F 75% 30.09 in 10.0 mi NNW 19.6 mph - N/A   Overcast
8:15 PM 32.0 °F 20.8 °F 24.8 °F 75% 30.07 in 10.0 mi NNW 17.3 mph - N/A   Overcast
8:52 PM 32.0 °F 21.2 °F 25.0 °F 75% 30.10 in 8.0 mi NNW 16.1 mph 25.3 mph N/A   Overcast
9:52 PM 32.0 °F 20.1 °F 25.0 °F 75% 30.11 in 8.0 mi NNW 19.6 mph 29.9 mph N/A   Overcast
10:52 PM 30.9 °F 18.4 °F 24.1 °F 76% 30.11 in 10.0 mi North 20.7 mph 27.6 mph N/A   Overcast
11:52 PM 28.9 °F 18.2 °F 23.0 °F 78% 30.13 in 10.0 mi NNW 13.8 mph 28.8 mph N/A   Overcast